OK1CMJ-5 Weather Reports


time (UTC)temp
C
wind
direction
speed
KPH
gust
KPH
rain 1hr
cm
rain 24hr
cm
rain mn
cm
humidity
%
barometer
mb
20260505062234 21 1 1.6 3.2 0.00 0.10 0.00 22 1010.8
20260505061334 22 355 0.0 3.2 0.00 0.10 0.00 27 1010.7
20260505055534 21 1 0.0 3.2 0.00 0.10 0.00 66 1010.8
20260505054634 19 0 0.0 0.0 0.00 0.10 0.00 99 1010.6
20260505053734 16 0 0.0 0.0 0.00 0.10 0.00 99 1011.0
20260505052834 14 0 0.0 0.0 0.00 0.10 0.00 99 1010.8
20260505051934 13 340 0.0 3.2 0.00 0.10 0.00 99 1011.0
20260505040734 10 181 0.0 1.6 0.00 0.10 0.00 99 1011.1
20260505035834 10 181 0.0 1.6 0.00 0.10 0.00 99 1010.8
20260505034934 10 181 0.0 1.6 0.00 0.10 0.00 99 1010.9
20260505034034 10 278 0.0 1.6 0.00 0.10 0.00 99 1010.8
20260505033134 10 314 0.0 1.6 0.00 0.10 0.00 99 1010.9
20260505032234 10 314 0.0 1.6 0.00 0.10 0.00 99 1011.1
20260505031334 10 0 0.0 0.0 0.00 0.10 0.00 99 1011.2
20260505025534 10 0 0.0 0.0 0.00 0.10 0.00 99 1011.5
20260505024634 10 0 0.0 0.0 0.00 0.10 0.00 99 1011.5
20260505023734 10 314 0.0 1.6 0.00 0.10 0.00 99 1011.7
20260505022834 10 314 0.0 1.6 0.00 0.10 0.00 99 1011.8
20260505021934 10 314 0.0 1.6 0.00 0.10 0.00 99 1011.7
20260505020134 10 252 0.0 3.2 0.00 0.10 0.00 99 1011.7
20260505015234 10 189 0.0 3.2 0.00 0.10 0.00 99 1011.7
20260505014334 10 342 0.0 3.2 0.00 0.10 0.00 99 1011.7
20260505013434 10 296 0.0 1.6 0.00 0.10 0.00 98 1011.7
20260505011633 10 292 0.0 1.6 0.00 0.10 0.00 96 1011.6
20260505010733 10 294 0.0 1.6 0.00 0.10 0.00 96 1011.6
20260505005834 10 1 0.0 1.6 0.00 0.10 0.00 95 1011.8
20260505004934 10 1 0.0 3.2 0.00 0.10 0.00 94 1012.0
20260505004033 10 1 0.0 3.2 0.00 0.10 0.00 93 1012.1
20260505003134 10 1 0.0 3.2 0.00 0.10 0.00 92 1012.3
20260505002234 10 1 0.0 1.6 0.00 0.10 0.00 92 1012.3
20260505001334 10 1 0.0 1.6 0.00 0.10 0.00 92 1012.3
20260504235534 10 181 0.0 3.2 0.00 0.10 0.00 89 1012.6
20260504234633 10 1 0.0 3.2 0.00 0.10 0.00 88 1012.7
20260504232833 11 266 0.0 3.2 0.00 0.10 0.00 82 1012.7
20260504231933 11 1 0.0 3.2 0.00 0.10 0.00 82 1012.8
20260504231033 11 318 0.0 3.2 0.00 0.10 0.00 81 1012.8
20260504230133 11 314 0.0 3.2 0.00 0.10 0.00 79 1012.8
20260504224333 11 1 0.0 3.2 0.00 0.10 0.00 73 1013.1
20260504223433 11 1 0.0 3.2 0.00 0.10 0.00 70 1013.2
20260504222534 11 1 0.0 1.6 0.00 0.10 0.00 66 1013.2
20260504221633 11 1 0.0 3.2 0.00 0.10 0.00 65 1013.4
20260504220733 12 345 0.0 3.2 0.10 0.10 0.00 61 1013.4
20260504214033 13 314 1.6 3.2 0.10 0.10 0.10 50 1013.7
20260504212233 15 278 0.0 6.4 0.10 0.10 0.10 42 1014.0
20260504211334 15 346 3.2 6.4 0.05 0.05 0.05 38 1014.2
20260504210434 16 346 1.6 4.8 0.00 0.00 0.00 32 1014.2
20260504205533 16 331 1.6 8.0 0.00 0.00 0.00 32 1014.1
20260504204633 15 317 0.0 3.2 0.00 0.00 0.00 34 1014.1
20260504203733 15 265 0.0 3.2 0.00 0.00 0.00 36 1013.9
20260504202833 15 181 0.0 3.2 0.00 0.00 0.00 36 1013.9
20260504201934 15 181 0.0 3.2 0.00 0.00 0.00 35 1013.9
20260504200133 15 181 0.0 3.2 0.00 0.00 0.00 36 1013.8
20260504195233 15 181 0.0 1.6 0.00 0.00 0.00 35 1013.8
20260504194334 15 181 0.0 3.2 0.00 0.00 0.00 35 1013.9
20260504193433 15 181 0.0 3.2 0.00 0.00 0.00 35 1013.8
20260504192533 15 181 0.0 3.2 0.00 0.00 0.00 34 1014.0
20260504191633 15 181 0.0 3.2 0.00 0.00 0.00 34 1014.0
20260504190733 15 181 0.0 3.2 0.00 0.00 0.00 33 1013.9
20260504185833 15 181 0.0 3.2 0.00 0.00 0.00 32 1013.8
20260504184933 15 181 0.0 3.2 0.00 0.00 0.00 31 1013.7
20260504184034 16 181 0.0 3.2 0.00 0.00 0.00 28 1013.5
20260504183133 16 181 0.0 3.2 0.00 0.00 0.00 27 1013.5
20260504182233 17 181 0.0 1.6 0.00 0.00 0.00 24 1013.5
20260504181333 17 0 0.0 0.0 0.00 0.00 0.00 21 1013.3
20260504180433 18 0 0.0 0.0 0.00 0.00 0.00 16 1013.3
20260504175533 19 79 0.0 3.2 0.00 0.00 0.00 16 1013.2
20260504174633 19 17 0.0 3.2 0.00 0.00 0.00 16 1013.2
20260504173733 20 1 1.6 6.4 0.00 0.00 0.00 15 1013.2
20260504172833 20 337 3.2 6.4 0.00 0.00 0.00 13 1013.3
20260504170133 22 1 0.0 1.6 0.00 0.00 0.00 10 1013.4
20260504150433 27 355 1.6 8.0 0.00 0.00 0.00 10 1013.9
20260504141033 26 8 1.6 4.8 0.00 0.00 0.00 10 1014.3
20260504140133 25 339 1.6 4.8 0.00 0.00 0.00 10 1014.2
20260504130733 26 127 3.2 11.3 0.00 0.00 0.00 10 1014.6
20260504110133 24 340 3.2 12.9 0.00 0.00 0.00 10 1015.4
20260504081933 23 128 0.0 4.8 0.00 0.00 0.00 10 1016.3
20260504081033 22 332 3.2 6.4 0.00 0.00 0.00 10 1016.1
20260504080133 22 314 1.6 3.2 0.00 0.00 0.00 10 1015.9